HANGZHOU/JIANQIAO current weather conditions

sailwx.info

Wind from 360 at 11 knots

Air temperature 6.0° C
Visibility: greater than 5.4 NM
Dewpoint -9.0° C

Last reported at 2017-Jan-20 06:30 UTC.
Time now 2017-Jan-20 07:58 UTC

Location: N 30°13' E 120°26'.
View on Google Maps.

See reports from other nearby stations

  
Tides and Currents Weather Stations Pressure Air Temp Water Temp Dewpoint Dewpoint Depression Visibility Wind Speed Wind Dir Waves Ship Positions
date/time (UTC)wind fromknots sea level pressurealtimeterstation pressurevisibilityair tempwater tempwave heightnotes
2017-Jan-20 06:30 360 11 5.4 6.0
2017-Jan-20 06:00 360 9 5.4 6.0
2017-Jan-20 05:30 010 11 5.4 6.0
2017-Jan-20 05:00 360 11 5.4 6.0
2017-Jan-20 04:30 340 11 5.4 6.0
2017-Jan-20 04:00 350 13 5.4 6.0
2017-Jan-20 03:30 340 11 5.4 6.0
2017-Jan-20 03:00 350 11 5.4 5.0
2017-Jan-20 02:30 330 13 5.4 5.0
2017-Jan-20 02:00 330 11 5.4 5.0
2017-Jan-20 01:30 320 9 5.4 5.0
2017-Jan-20 01:00 310 9 3.8 4.0
2017-Jan-20 00:30 320 7 3.8 4.0
2017-Jan-20 00:00 310 7 5.4 3.0
2017-Jan-19 23:30 320 7 5.4 3.0
2017-Jan-19 23:00 320 5 5.4 3.0
2017-Jan-19 22:30 320 7 5.4 3.0
2017-Jan-19 22:00 320 7 5.4 4.0
2017-Jan-19 21:30 320 5 5.4 3.0
2017-Jan-19 21:00 340 9 3.8 4.0
2017-Jan-19 20:30 330 11 3.2 4.0
2017-Jan-19 20:00 340 7 2.7 5.0 Haze.
2017-Jan-19 19:30 340 7 2.7 5.0 Haze.
2017-Jan-19 19:00 330 11 2.7 6.0 Haze.
2017-Jan-19 18:30 320 11 3.2 7.0
2017-Jan-19 18:00 320 11 3.2 7.0
2017-Jan-19 17:30 320 13 3.2 7.0
2017-Jan-19 17:00 310 9 3.2 7.0
2017-Jan-19 16:30 320 9 3.2 7.0
2017-Jan-19 16:00 300 9 3.2 7.0
2017-Jan-19 15:30 310 11 3.2 8.0
2017-Jan-19 15:00 320 11 3.2 8.0
2017-Jan-19 14:30 320 7 3.2 8.0 Light drizzle.
2017-Jan-19 14:00 320 7 3.8 8.0
2017-Jan-19 13:30 310 7 3.8 8.0
2017-Jan-19 13:00 320 7 3.8 8.0
2017-Jan-19 12:30 320 9 3.2 8.0
2017-Jan-19 12:00 330 9 2.7 8.0 Mist.
2017-Jan-19 11:30 340 7 1.9 8.0 Mist.
2017-Jan-19 11:00 360 7 1.6 8.0 Mist.
2017-Jan-19 10:30 360 3 1.5 8.0 Mist.
2017-Jan-19 10:00 1.3 7.0 Mist.
2017-Jan-19 09:30 360 3 1.3 7.0 Mist.
2017-Jan-19 09:00 360 3 1.3 7.0 Mist.
2017-Jan-19 08:30 340 3 1.2 8.0 Mist.
2017-Jan-19 08:00 360 3 1.2 7.0 Mist.
2017-Jan-19 07:30 340 5 1.2 7.0 Mist.
2017-Jan-19 07:00 350 3 1.2 7.0 Mist.
2017-Jan-19 06:30 340 5 1.2 8.0 Mist.
2017-Jan-19 06:00 350 5 1.2 8.0 Mist.
2017-Jan-19 05:30 340 5 1.3 8.0 Mist.
2017-Jan-19 05:00 350 3 1.3 8.0 Mist.
2017-Jan-19 04:30 360 5 1.3 8.0 Mist.
2017-Jan-19 04:00 340 5 1.2 7.0 Mist.
2017-Jan-19 03:30 360 3 1.2 7.0 Mist.
2017-Jan-19 03:00 020 3 1.3 7.0 Mist.
2017-Jan-19 02:30 020 3 1.0 7.0 Light drizzle. Mist.
2017-Jan-19 02:00 330 3 0.8 7.0 Mist.
2017-Jan-19 01:30 330 3 1.0 7.0 Mist.
2017-Jan-19 01:00 020 3 0.8 6.0 Light drizzle. Mist.
2017-Jan-19 00:30 030 5 0.6 7.0 Light drizzle. Mist.
2017-Jan-19 00:00 030 5 0.5 6.0 Light rain. Mist.
2017-Jan-18 23:30 020 5 0.9 6.0 Light rain. Mist.
2017-Jan-18 23:00 010 5 0.9 6.0 Light rain. Mist.
2017-Jan-18 22:30 010 5 0.9 6.0 Light rain. Mist.
2017-Jan-18 22:00 010 5 0.9 6.0 Light rain. Mist.
2017-Jan-18 21:30 010 7 0.9 7.0 Light rain. Mist.
2017-Jan-18 21:00 010 5 1.0 7.0 Light rain. Mist.
2017-Jan-18 20:30 010 5 1.0 7.0 Light rain. Mist.
2017-Jan-18 20:00 030 7 1.0 7.0 Light rain. Mist.
2017-Jan-18 19:30 040 5 0.9 7.0 Light rain. Mist.
2017-Jan-18 19:00 020 5 0.9 7.0 Light rain. Mist.
2017-Jan-18 18:30 030 7 0.9 7.0 Light rain. Mist.
2017-Jan-18 18:00 030 7 1.0 7.0 Light rain. Mist.
2017-Jan-18 17:30 030 7 1.0 7.0 Light rain. Mist.
2017-Jan-18 17:00 030 5 1.0 7.0 Light rain. Mist.
2017-Jan-18 16:30 030 5 1.0 7.0 Light rain. Mist.
2017-Jan-18 16:00 030 7 1.1 7.0 Light rain. Mist.
2017-Jan-18 15:30 030 7 1.6 7.0 Light rain. Mist.
2017-Jan-18 15:00 030 7 1.5 7.0 Light rain. Mist.
2017-Jan-18 14:30 060 7 1.6 8.0 Light rain. Mist.
2017-Jan-18 14:00 050 7 1.3 8.0 Light rain. Mist.
2017-Jan-18 13:30 060 7 1.9 8.0 Light rain. Mist.
2017-Jan-18 13:00 070 9 1.9 8.0 Light rain. Mist.
2017-Jan-18 12:30 070 9 1.9 8.0 Light rain. Mist.
2017-Jan-18 12:00 070 9 1.9 8.0 Light rain. Mist.
2017-Jan-18 11:30 060 9 2.2 8.0 Light rain. Mist.
2017-Jan-18 11:00 070 7 2.2 8.0 Light rain. Mist.
2017-Jan-18 10:30 070 9 2.2 8.0 Light rain. Mist.
2017-Jan-18 10:00 070 7 2.7 8.0 Light rain. Mist.
2017-Jan-18 09:30 080 9 2.2 8.0 Light rain. Mist.
2017-Jan-18 09:00 070 11 2.2 8.0 Light rain. Mist.
2017-Jan-18 08:30 080 9 2.4 8.0 Light rain. Mist.
2017-Jan-18 08:00 080 9 2.4 8.0 Light rain. Mist.
2017-Jan-18 07:30 080 11 2.4 9.0 Light rain. Mist.
2017-Jan-18 07:00 080 7 2.7 9.0 Light rain. Mist.